Weather History for Fort Myers, FL

Change the Weather History Date:

Monday, December 24, 2012

  Actual Average Record
Temperature  
Mean Temperature 64 °F 65 °F  
Max Temperature 75 °F 75 °F 88 °F (1981)
Min Temperature 52 °F 55 °F 27 °F (1989)
Degree Days  
Heating Degree Days 1 3  
Month to date heating degree days 22 50  
Since 1 July heating degree days 37 68  
Cooling Degree Days 0 3  
Month to date cooling degree days 141 100  
Year to date cooling degree days 4354 3963  
Growing Degree Days 12 (Base 50)    
Moisture  
Dew Point 54 °F    
Average Humidity 74    
Maximum Humidity 96    
Minimum Humidity 49    
Precipitation  
Precipitation 0.00 in 0.06 in 0.77 in (1907)
Month to date precipitation 2.00 1.28  
Year to date precipitation 49.43 55.50  
Sea Level Pressure  
Sea Level Pressure 30.08 in    
Wind  
Wind Speed 3 mph (South)    
Max Wind Speed 12 mph    
Max Gust Speed 14 mph    
Visibility 10 miles    
Events      
T = Trace of Precipitation, MM = Missing Value Source: NWS Daily Summary

Daily Weather History Graph

Daily Weather History Graph

Search for Another Location

Airport:

Trip Planner

Search our weather history database for the weather conditions in past years. The results will help you decide how hot, cold, wet, or windy it might be!

Date:

Astronomy

Dec. 24, 2012 Rise Set
Actual Time 7:13 AM EST 5:41 PM EST
Civil Twilight 6:47 AM EST 6:07 PM EST
Nautical Twilight 6:18 AM EST 6:35 PM EST
Astronomical Twilight 5:50 AM EST 7:04 PM EST
Moon 3:02 PM EST (12/24) 3:57 AM EST (12/24)
Length of Visible Light 11h 19m
Length of Day
10h 28m
Waxing Gibbous, 88% of the Moon is Illuminated
Dec 24
Waxing Gibbous
Dec 28
Full
Jan 4
Last Quarter
Jan 11
New
Jan 18
First Quarter

Hourly Weather History & Observations

Time (EST) Temp. Dew Point Humidity Pressure Visibility Wind Dir Wind Speed Gust Speed Precip Events Conditions
12:53 AM 57.0 °F 52.0 °F 83% 30.15 in 10.0 mi Calm Calm - N/A   Clear
1:53 AM 55.9 °F 52.0 °F 87% 30.13 in 10.0 mi Calm Calm - N/A   Clear
2:53 AM 54.0 °F 51.1 °F 90% 30.12 in 10.0 mi Calm Calm - N/A   Clear
3:53 AM 54.0 °F 51.1 °F 90% 30.10 in 10.0 mi Calm Calm - N/A   Clear
4:53 AM 53.1 °F 51.1 °F 93% 30.10 in 10.0 mi NE 3.5 mph - N/A   Clear
5:53 AM 53.1 °F 50.0 °F 89% 30.10 in 10.0 mi Calm Calm - N/A   Clear
6:53 AM 52.0 °F 50.0 °F 93% 30.12 in 10.0 mi Calm Calm - N/A   Clear
7:53 AM 54.0 °F 51.1 °F 90% 30.12 in 10.0 mi Calm Calm - N/A   Clear
8:53 AM 57.9 °F 53.1 °F 84% 30.14 in 10.0 mi East 3.5 mph - N/A   Clear
9:53 AM 66.0 °F 52.0 °F 60% 30.15 in 10.0 mi Calm Calm - N/A   Clear
10:53 AM 71.1 °F 52.0 °F 51% 30.14 in 10.0 mi East 6.9 mph - N/A   Clear
11:53 AM 72.0 °F 53.1 °F 51% 30.11 in 10.0 mi SSE 4.6 mph - N/A   Clear
12:53 PM 73.0 °F 54.0 °F 51% 30.08 in 10.0 mi SSW 4.6 mph - N/A   Clear
1:53 PM 73.9 °F 53.1 °F 48% 30.06 in 10.0 mi SSW 8.1 mph - N/A   Clear
2:53 PM 73.9 °F 54.0 °F 50% 30.04 in 10.0 mi SW 6.9 mph - N/A   Clear
3:53 PM 73.0 °F 55.9 °F 55% 30.04 in 10.0 mi SSW 5.8 mph - N/A   Scattered Clouds
4:53 PM 71.1 °F 55.9 °F 59% 30.04 in 10.0 mi SW 5.8 mph - N/A   Clear
5:53 PM 69.1 °F 55.9 °F 63% 30.01 in 10.0 mi SSW 5.8 mph - N/A   Clear
6:53 PM 68.0 °F 57.0 °F 68% 29.99 in 10.0 mi SSW 6.9 mph - N/A   Clear
7:53 PM 66.0 °F 57.0 °F 73% 30.03 in 10.0 mi Calm Calm - N/A   Clear
8:53 PM 64.0 °F 57.9 °F 80% 30.02 in 10.0 mi Calm Calm - N/A   Clear
9:53 PM 62.1 °F 57.9 °F 86% 30.04 in 10.0 mi NE 3.5 mph - N/A   Clear
10:53 PM 61.0 °F 57.0 °F 87% 30.05 in 10.0 mi Calm Calm - N/A   Clear
11:53 PM 60.1 °F 55.9 °F 86% 30.04 in 10.0 mi Calm Calm - N/A   Clear